• In Deutschland
  • Länderverzeichnis
  • Für 7 Tage
  • Wassertemperatur
  • Satellitenkarten
  • Wetterkarte
  • Widgets
  • user-avatar
    Anmelden

    Stündliche Wetter Kalat

    Heute, 21 November, Dienstag

    Zeit Temperatur Niederschläge Wind Luftdruck Luftfeuchtigkeit
    00:00 -10°C° 0 mm 1 m/S 471 mmHg 31%
    01:00 -11°C° 0 mm 1 m/S 471 mmHg 30%
    02:00 -13°C° 0 mm 2 m/S 471 mmHg 29%
    03:00 -13°C° 0 mm 2 m/S 471 mmHg 28%
    04:00 -13°C° 0 mm 2 m/S 470 mmHg 27%
    05:00 -14°C° 0 mm 2 m/S 470 mmHg 24%
    06:00 -14°C° 0 mm 2 m/S 470 mmHg 24%
    07:00 -13°C° 0 mm 2 m/S 470 mmHg 24%
    08:00 -13°C° 0 mm 2 m/S 471 mmHg 25%
    09:00 -10°C° 0 mm 2 m/S 472 mmHg 22%
    10:00 -9°C° 0 mm 2 m/S 473 mmHg 20%
    11:00 -6°C° 0 mm 1 m/S 474 mmHg 18%
    12:00 -4°C° 0 mm 1 m/S 474 mmHg 19%
    13:00 -4°C° 0 mm 1 m/S 474 mmHg 19%
    14:00 -3°C° 0 mm 1 m/S 474 mmHg 20%
    15:00 -6°C° 0 mm 1 m/S 473 mmHg 23%
    16:00 -7°C° 0 mm 1 m/S 472 mmHg 27%
    17:00 -8°C° 0 mm 1 m/S 471 mmHg 30%
    18:00 -8°C° 0 mm 1 m/S 471 mmHg 29%
    19:00 -9°C° 0 mm 1 m/S 471 mmHg 28%
    20:00 -10°C° 0 mm 2 m/S 471 mmHg 27%
    21:00 -10°C° 0 mm 2 m/S 471 mmHg 26%
    22:00 -10°C° 0 mm 2 m/S 471 mmHg 24%
    23:00 -10°C° 0 mm 2 m/S 471 mmHg 23%

    Morgen, 22 November, Mittwoch

    Zeit Temperatur Niederschläge Wind Luftdruck Luftfeuchtigkeit
    00:00 -12°C° 0 mm 2 m/S 470 mmHg 21%
    01:00 -12°C° 0 mm 2 m/S 470 mmHg 20%
    02:00 -12°C° 0 mm 2 m/S 470 mmHg 19%
    03:00 -12°C° 0 mm 2 m/S 470 mmHg 19%
    04:00 -12°C° 0 mm 2 m/S 470 mmHg 18%
    05:00 -12°C° 0 mm 2 m/S 470 mmHg 18%
    06:00 -12°C° 0 mm 2 m/S 470 mmHg 18%
    07:00 -10°C° 0 mm 2 m/S 470 mmHg 19%
    08:00 -10°C° 0 mm 2 m/S 471 mmHg 19%
    09:00 -8°C° 0 mm 2 m/S 472 mmHg 18%
    10:00 -4°C° 0 mm 1 m/S 473 mmHg 18%
    11:00 -2°C° 0 mm 1 m/S 475 mmHg 17%
    12:00 -2°C° 0 mm 1 m/S 475 mmHg 18%
    13:00 -1°C° 0 mm 1 m/S 475 mmHg 20%
    14:00 -1°C° 0 mm 1 m/S 475 mmHg 22%
    15:00 -2°C° 0 mm 1 m/S 474 mmHg 25%
    16:00 -4°C° 0 mm 1 m/S 472 mmHg 29%
    17:00 -6°C° 0 mm 1 m/S 471 mmHg 33%
    18:00 -7°C° 0 mm 2 m/S 471 mmHg 34%
    19:00 -8°C° 0 mm 2 m/S 471 mmHg 34%
    20:00 -9°C° 0 mm 3 m/S 471 mmHg 34%
    21:00 -9°C° 0 mm 3 m/S 471 mmHg 33%
    22:00 -9°C° 0 mm 3 m/S 471 mmHg 32%
    23:00 -9°C° 0 mm 3 m/S 471 mmHg 30%

    übermorgen, 23 November, Donnerstag

    Zeit Temperatur Niederschläge Wind Luftdruck Luftfeuchtigkeit
    00:00 -9°C° 0 mm 3 m/S 471 mmHg 29%
    01:00 -9°C° 0 mm 2 m/S 471 mmHg 28%
    02:00 -9°C° 0 mm 2 m/S 470 mmHg 26%
    03:00 -9°C° 0 mm 2 m/S 470 mmHg 25%
    04:00 -9°C° 0 mm 2 m/S 470 mmHg 24%
    05:00 -9°C° 0 mm 2 m/S 470 mmHg 22%
    06:00 -9°C° 0 mm 2 m/S 470 mmHg 22%
    07:00 -9°C° 0 mm 2 m/S 470 mmHg 22%
    08:00 -8°C° 0 mm 2 m/S 471 mmHg 22%
    09:00 -7°C° 0 mm 2 m/S 472 mmHg 21%
    10:00 -5°C° 0 mm 2 m/S 473 mmHg 20%
    11:00 -2°C° 0 mm 1 m/S 474 mmHg 20%
    12:00 -3°C° 0 mm 2 m/S 474 mmHg 21%
    13:00 -3°C° 0 mm 2 m/S 474 mmHg 22%
    14:00 -3°C° 0 mm 2 m/S 474 mmHg 23%
    15:00 -4°C° 0 mm 2 m/S 473 mmHg 28%
    16:00 -3°C° 0 mm 1 m/S 473 mmHg 32%
    17:00 -4°C° 0 mm 1 m/S 472 mmHg 37%
    18:00 -6°C° 0 mm 1 m/S 472 mmHg 38%
    19:00 -6°C° 0 mm 1 m/S 472 mmHg 38%
    20:00 -7°C° 0 mm 2 m/S 472 mmHg 38%
    21:00 -8°C° 0 mm 2 m/S 472 mmHg 39%
    22:00 -8°C° 0 mm 2 m/S 472 mmHg 39%
    23:00 -8°C° 0 mm 2 m/S 472 mmHg 39%

    24 November, Freitag

    Zeit Temperatur Niederschläge Wind Luftdruck Luftfeuchtigkeit
    00:00 -8°C° 0 mm 2 m/S 472 mmHg 40%
    01:00 -8°C° 0 mm 2 m/S 472 mmHg 40%
    02:00 -8°C° 0 mm 2 m/S 472 mmHg 41%
    03:00 -8°C° 0 mm 2 m/S 471 mmHg 41%
    04:00 -8°C° 0 mm 2 m/S 471 mmHg 42%
    05:00 -8°C° 0 mm 2 m/S 471 mmHg 43%
    06:00 -8°C° 0 mm 2 m/S 471 mmHg 43%
    07:00 -8°C° 0 mm 2 m/S 472 mmHg 44%
    08:00 -8°C° 0 mm 2 m/S 472 mmHg 44%
    09:00 -6°C° 0 mm 2 m/S 473 mmHg 42%
    10:00 -4°C° 0 mm 2 m/S 475 mmHg 40%
    11:00 -3°C° 0 mm 2 m/S 476 mmHg 37%
    12:00 -2°C° 0 mm 2 m/S 476 mmHg 38%
    13:00 -2°C° 0 mm 2 m/S 476 mmHg 38%
    14:00 -2°C° 0 mm 2 m/S 476 mmHg 38%
    15:00 -3°C° 0 mm 2 m/S 475 mmHg 42%
    16:00 -4°C° 0 mm 2 m/S 474 mmHg 47%
    17:00 -3°C° 0 mm 1 m/S 473 mmHg 51%
    18:00 -6°C° 0 mm 2 m/S 473 mmHg 52%
    19:00 -6°C° 0 mm 2 m/S 473 mmHg 52%
    20:00 -6°C° 0 mm 2 m/S 474 mmHg 53%
    21:00 -6°C° 0 mm 2 m/S 474 mmHg 55%
    22:00 -6°C° 0 mm 2 m/S 474 mmHg 57%
    23:00 -6°C° 0 mm 2 m/S 473 mmHg 59%

    25 November, Samstag

    Zeit Temperatur Niederschläge Wind Luftdruck Luftfeuchtigkeit
    00:00 -6°C° 0,1 mm 2 m/S 473 mmHg 61%
    01:00 -7°C° 0,1 mm 2 m/S 473 mmHg 63%
    02:00 -7°C° 0,1 mm 2 m/S 473 mmHg 65%
    03:00 -7°C° 0,1 mm 2 m/S 473 mmHg 67%
    04:00 -7°C° 0,1 mm 2 m/S 472 mmHg 68%
    05:00 -7°C° 0,1 mm 2 m/S 472 mmHg 70%
    06:00 -8°C° 0 mm 2 m/S 472 mmHg 69%
    07:00 -9°C° 0 mm 3 m/S 472 mmHg 68%
    08:00 -9°C° 0 mm 3 m/S 472 mmHg 67%
    09:00 -8°C° 0 mm 3 m/S 473 mmHg 62%
    10:00 -6°C° 0 mm 3 m/S 474 mmHg 57%
    11:00 -5°C° 0 mm 3 m/S 475 mmHg 52%
    12:00 -4°C° 0 mm 3 m/S 475 mmHg 50%
    13:00 -4°C° 0 mm 3 m/S 475 mmHg 49%
    14:00 -4°C° 0 mm 3 m/S 475 mmHg 47%
    15:00 -5°C° 0 mm 3 m/S 474 mmHg 50%
    16:00 -6°C° 0 mm 3 m/S 473 mmHg 54%
    17:00 -6°C° 0 mm 2 m/S 472 mmHg 58%
    18:00 -7°C° 0 mm 2 m/S 472 mmHg 59%
    19:00 -9°C° 0 mm 3 m/S 472 mmHg 59%
    20:00 -9°C° 0 mm 3 m/S 472 mmHg 59%
    21:00 -9°C° 0 mm 3 m/S 472 mmHg 59%
    22:00 -9°C° 0 mm 3 m/S 473 mmHg 59%
    23:00 -8°C° 0 mm 2 m/S 473 mmHg 59%

    26 November, Sonntag

    Zeit Temperatur Niederschläge Wind Luftdruck Luftfeuchtigkeit
    00:00 -8°C° 0 mm 2 m/S 473 mmHg 61%
    01:00 -9°C° 0 mm 2 m/S 473 mmHg 63%
    02:00 -9°C° 0 mm 2 m/S 473 mmHg 65%
    03:00 -9°C° 0 mm 2 m/S 473 mmHg 66%
    04:00 -10°C° 0 mm 2 m/S 472 mmHg 67%
    05:00 -10°C° 0 mm 2 m/S 472 mmHg 67%
    06:00 -10°C° 0 mm 2 m/S 473 mmHg 66%
    07:00 -10°C° 0 mm 2 m/S 473 mmHg 66%
    08:00 -9°C° 0 mm 2 m/S 473 mmHg 65%
    09:00 -9°C° 0 mm 3 m/S 474 mmHg 60%
    10:00 -7°C° 0 mm 3 m/S 475 mmHg 56%
    11:00 -6°C° 0 mm 3 m/S 476 mmHg 51%
    12:00 -6°C° 0 mm 3 m/S 476 mmHg 50%
    13:00 -5°C° 0 mm 3 m/S 476 mmHg 50%
    14:00 -5°C° 0 mm 3 m/S 476 mmHg 49%
    15:00 -6°C° 0 mm 3 m/S 475 mmHg 53%
    16:00 -6°C° 0 mm 2 m/S 475 mmHg 58%
    17:00 -7°C° 0 mm 2 m/S 474 mmHg 63%
    18:00 -7°C° 0 mm 2 m/S 474 mmHg 64%
    19:00 -7°C° 0 mm 2 m/S 474 mmHg 66%
    20:00 -8°C° 0 mm 2 m/S 473 mmHg 68%
    21:00 -8°C° 0 mm 2 m/S 473 mmHg 68%
    22:00 -8°C° 0 mm 2 m/S 473 mmHg 68%
    23:00 -9°C° 0 mm 2 m/S 473 mmHg 69%
    Mehr zeigen